Home > Weather > New Orleans > Past weeks

Flag for U.S.A. Weather for the Past 2 Weeks in New Orleans, Louisiana, U.S.A.

Now
55 °F

Clear.


Feels Like: 52 °F
Forecast: 57 / 74 °F
Wind: 9 mph from Southwest

Location: Lakefront Airport

Current Time: Feb 12, 2016 at 6:58:12 AM

Latest Report: Feb 12, 2016 at 5:53 AM


Visibility: 9 mi

Pressure: 30.20 "Hg

Humidity: 96%

Dew point: 54 °F

Location of New OrleansLocation

Historic Weather in New Orleans — Graph

°F

New Orleans Temperature Yesterday

Maximum temperature yesterday: 67 °F (at 12:53 PM)
Minimum temperature yesterday: 48 °F (at 12:53 AM)
Average temperature yesterday: 58 °F

High & Low Weather Summary for the Past Weeks

 TemperatureHumidityPressure
High77 °F (Feb 2, 11:53 AM)100% (Feb 1, 1:53 AM)30.51 "Hg (Feb 1, 1:53 AM)
Low41 °F (Feb 5, 5:53 AM)31% (Feb 6, 1:53 PM)29.75 "Hg (Feb 2, 2:53 PM)
Average55 °F66%30.11 "Hg
* Reported Jan 28 4:53 AM — Feb 12 4:53 AM, New Orleans, Weather by CustomWeather, © 2016

Note: Actual official high and low records may vary slightly from our data, if they occured in-between our weather recording intervals... More about our weather records

Advertising

New Orleans Weather History for the Previous 24 Hours

 ConditionsComfort  
Time TempWeatherWind HumidityBarometerVisibility
4:53 AM
Fri, Feb 12
56 °FClear.12 mph93%30.18 "Hg10 mi
3:53 AM57 °FClear.14 mph93%30.17 "Hg10 mi
2:53 AM57 °FClear.15 mph93%30.16 "Hg10 mi
1:53 AM58 °FClear.15 mph93%30.16 "Hg10 mi
12:53 AM58 °FClear.16 mph90%30.18 "Hg8 mi
11:53 PM
Thu, Feb 11
58 °FClear.15 mph90%30.19 "Hg8 mi
10:53 PM58 °FClear.14 mph90%30.20 "Hg10 mi
9:53 PM58 °FClear.10 mph90%30.20 "Hg10 mi
8:53 PM59 °FClear.10 mph84%30.20 "Hg10 mi
7:53 PM60 °FClear.12 mph78%30.19 "Hg10 mi
6:53 PM62 °FClear.14 mph73%30.17 "Hg10 mi
5:53 PM63 °FClear.17 mph65%30.14 "Hg10 mi
4:53 PM65 °FSunny.20 mph63%30.13 "Hg10 mi
2:53 PM66 °FSunny.14 mph59%30.11 "Hg10 mi
1:53 PM65 °FSunny.17 mph63%30.12 "Hg10 mi
12:53 PM67 °FSunny.21 mph59%30.15 "Hg10 mi
11:53 AM65 °FSunny.16 mph63%30.19 "Hg10 mi
10:53 AM64 °FSunny.18 mph68%30.21 "Hg10 mi
9:53 AM62 °FSunny.15 mph73%30.22 "Hg10 mi
8:53 AM60 °FSunny.17 mph72%30.21 "Hg10 mi
7:53 AM54 °FSunny.13 mph80%30.21 "Hg10 mi
6:53 AM51 °FSunny.12 mph83%30.20 "Hg10 mi
Weather by CustomWeather, © 2016

See weather overviewHow to use our weather pages